EWG222 LIRN-EDDL

Flight info

Callsign EWG222
Flight time N/A
Altitude 37999
Route ALAXI DCT INSOX DCT SOVUB DCT NAXAV DCT UNIMI DCT MOGTI DCT KPT DCT TEDGO/N0434F370 DCT HAREM DCT LOHRE/N0438F380 Z850 ARPEG/N0376F240 Z850 ADEMI T854 DOMUX DOMUX1A
Aircraft A320/M-SDE3FGHIRWY/LB1

Departure

Time 2026-05-05 12:34
Airport Naples International Airport (LIRN)

Arrival

Time N/A
Airport Düsseldorf Airport (EDDL)
Time Latitude Longitude Altitude Speed Heading
2026-05-05 12:04 40.87880 14.28343 309 ft 0 kts 187°
2026-05-05 12:24 40.87881 14.28343 309 ft 1 kts 187°
2026-05-05 12:24 40.87895 14.28346 309 ft 2 kts 191°
2026-05-05 12:24 40.87903 14.28348 309 ft 1 kts 195°
2026-05-05 12:25 40.87911 14.28351 309 ft 1 kts 200°
2026-05-05 12:25 40.87924 14.28358 309 ft 2 kts 213°
2026-05-05 12:26 40.87936 14.28370 309 ft 2 kts 244°
2026-05-05 12:26 40.87940 14.28381 309 ft 2 kts 274°
2026-05-05 12:26 40.87939 14.28395 309 ft 2 kts 278°
2026-05-05 12:26 40.87939 14.28397 309 ft 0 kts 278°
2026-05-05 12:31 40.87941 14.28371 309 ft 11 kts 278°
2026-05-05 12:31 40.87954 14.28232 309 ft 16 kts 277°
2026-05-05 12:31 40.87961 14.28137 309 ft 13 kts 264°
2026-05-05 12:32 40.87913 14.28046 309 ft 13 kts 229°
2026-05-05 12:32 40.87855 14.27954 309 ft 13 kts 236°
2026-05-05 12:32 40.87886 14.27859 309 ft 13 kts 321°
2026-05-05 12:32 40.87945 14.27796 309 ft 12 kts 321°
2026-05-05 12:33 40.88002 14.27803 309 ft 0 kts 52°
2026-05-05 12:33 40.88064 14.27930 309 ft 46 kts 59°
2026-05-05 12:34 40.88350 14.28542 309 ft 110 kts 58°
2026-05-05 12:34 40.88717 14.29317 309 ft 151 kts 58°
2026-05-05 12:34 40.89329 14.30605 511 ft 173 kts 58°
2026-05-05 12:34 40.89971 14.31959 1198 ft 173 kts 60°
2026-05-05 12:35 40.90598 14.33321 1922 ft 174 kts 59°
2026-05-05 12:35 40.91171 14.34509 2372 ft 186 kts 58°
2026-05-05 12:35 40.91821 14.35862 2621 ft 210 kts 58°
2026-05-05 12:35 40.92482 14.37274 2861 ft 230 kts 59°
2026-05-05 12:36 40.93100 14.38610 3720 ft 224 kts 59°
2026-05-05 12:36 40.93866 14.40251 4304 ft 240 kts 58°
2026-05-05 12:36 40.94748 14.42132 5238 ft 242 kts 58°
2026-05-05 12:36 40.95648 14.44049 6051 ft 249 kts 58°
2026-05-05 12:37 40.96471 14.45804 6854 ft 251 kts 57°
2026-05-05 12:37 40.97406 14.47793 7672 ft 256 kts 57°
2026-05-05 12:37 40.98522 14.49631 8484 ft 258 kts 37°
2026-05-05 12:37 41.00146 14.50784 8856 ft 280 kts 14°
2026-05-05 12:38 41.01875 14.50977 9378 ft 284 kts 351°
2026-05-05 12:38 41.03799 14.50119 10380 ft 281 kts 327°
2026-05-05 12:38 41.05264 14.48483 10666 ft 300 kts 307°
2026-05-05 12:38 41.06033 14.46854 10727 ft 317 kts 295°
2026-05-05 12:39 41.06922 14.44554 10804 ft 338 kts 297°
2026-05-05 12:39 41.08132 14.41779 10892 ft 362 kts 300°
2026-05-05 12:39 41.09499 14.38899 11396 ft 372 kts 301°
2026-05-05 12:40 41.10574 14.36701 12077 ft 372 kts 301°
2026-05-05 12:40 41.11986 14.33842 12758 ft 377 kts 301°
2026-05-05 12:40 41.13434 14.30928 13425 ft 381 kts 301°
2026-05-05 12:41 41.14909 14.27977 14082 ft 384 kts 301°
2026-05-05 12:41 41.16393 14.25014 14664 ft 389 kts 301°
2026-05-05 12:41 41.17898 14.22014 15250 ft 393 kts 301°
2026-05-05 12:41 41.19424 14.18971 15813 ft 397 kts 301°
2026-05-05 12:42 41.20960 14.15911 16389 ft 400 kts 301°
2026-05-05 12:42 41.22493 14.12852 16916 ft 404 kts 301°
2026-05-05 12:42 41.24056 14.09727 17462 ft 407 kts 301°
2026-05-05 12:42 41.25643 14.06585 18004 ft 411 kts 303°
2026-05-05 12:43 41.27579 14.03764 18508 ft 420 kts 315°
2026-05-05 12:43 41.30000 14.01525 19054 ft 428 kts 328°
2026-05-05 12:43 41.32735 13.99899 19587 ft 432 kts 332°
2026-05-05 12:43 41.35517 13.98271 20068 ft 436 kts 333°
2026-05-05 12:44 41.38341 13.96730 20553 ft 440 kts 334°
2026-05-05 12:44 41.41193 13.95218 21059 ft 442 kts 334°
2026-05-05 12:44 41.44029 13.93727 21507 ft 445 kts 334°
2026-05-05 12:44 41.46953 13.92194 21978 ft 447 kts 334°
2026-05-05 12:45 41.49857 13.90674 22363 ft 450 kts 335°
2026-05-05 12:45 41.52746 13.89163 22767 ft 452 kts 335°
2026-05-05 12:45 41.55676 13.87631 23170 ft 454 kts 334°
2026-05-05 12:45 41.58625 13.86087 23530 ft 456 kts 335°
2026-05-05 12:46 41.61587 13.84537 23909 ft 458 kts 334°
2026-05-05 12:46 41.64567 13.82975 24231 ft 461 kts 335°
2026-05-05 12:46 41.67564 13.81404 24593 ft 462 kts 334°
2026-05-05 12:46 41.70549 13.79838 24939 ft 463 kts 334°
2026-05-05 12:47 41.73565 13.78255 25249 ft 465 kts 334°
2026-05-05 12:47 41.76598 13.76661 25578 ft 467 kts 334°
2026-05-05 12:47 41.79634 13.75065 25887 ft 468 kts 334°
2026-05-05 12:47 41.82670 13.73467 26170 ft 470 kts 334°
2026-05-05 12:48 41.85716 13.71862 26514 ft 470 kts 334°
2026-05-05 12:48 41.88715 13.70283 26950 ft 468 kts 334°
2026-05-05 12:48 41.91736 13.68693 27346 ft 466 kts 334°
2026-05-05 12:48 41.94752 13.67105 27728 ft 465 kts 334°
2026-05-05 12:49 41.97779 13.65510 28146 ft 463 kts 334°
2026-05-05 12:49 42.00788 13.63924 28530 ft 461 kts 333°
2026-05-05 12:49 42.03737 13.62366 28833 ft 461 kts 333°
2026-05-05 12:49 42.06761 13.60769 29197 ft 460 kts 333°
2026-05-05 12:50 42.09687 13.59221 29593 ft 457 kts 333°
2026-05-05 12:50 42.12657 13.57649 29943 ft 456 kts 333°
2026-05-05 12:50 42.15605 13.56087 30269 ft 455 kts 333°
2026-05-05 12:50 42.18559 13.54518 30578 ft 455 kts 333°
2026-05-05 12:51 42.21496 13.52958 30929 ft 453 kts 333°
2026-05-05 12:51 42.24419 13.51404 31231 ft 452 kts 333°
2026-05-05 12:51 42.27357 13.49840 31485 ft 452 kts 333°
2026-05-05 12:51 42.30285 13.48278 31795 ft 451 kts 333°
2026-05-05 12:52 42.33203 13.46722 32065 ft 451 kts 333°
2026-05-05 12:52 42.36120 13.45165 32383 ft 449 kts 333°
2026-05-05 12:52 42.39030 13.43609 32676 ft 448 kts 333°
2026-05-05 12:52 42.41927 13.42059 32894 ft 449 kts 333°
2026-05-05 12:53 42.44828 13.40504 33136 ft 448 kts 333°
2026-05-05 12:53 42.47738 13.38943 33417 ft 447 kts 333°
2026-05-05 12:53 42.50628 13.37392 33692 ft 446 kts 333°
2026-05-05 12:53 42.53515 13.35840 33916 ft 446 kts 333°
2026-05-05 12:54 42.59287 13.32733 34400 ft 445 kts 333°
2026-05-05 12:54 42.62124 13.31216 34595 ft 447 kts 335°
2026-05-05 12:54 42.65201 13.30148 34800 ft 455 kts 346°
2026-05-05 12:55 42.68348 13.29929 35019 ft 463 kts 358°
2026-05-05 12:55 42.71571 13.30591 35225 ft 471 kts
2026-05-05 12:55 42.74702 13.31979 35417 ft 473 kts 12°
2026-05-05 12:55 42.77843 13.33331 35656 ft 473 kts 14°
2026-05-05 12:56 42.80951 13.34851 35865 ft 474 kts 15°
2026-05-05 12:56 42.84045 13.36390 36057 ft 472 kts 12°
2026-05-05 12:56 42.87230 13.37240 36240 ft 462 kts 359°
2026-05-05 12:56 42.90416 13.37180 36443 ft 453 kts 348°
2026-05-05 12:57 42.93464 13.36270 36624 ft 445 kts 336°
2026-05-05 12:57 42.96397 13.34907 36803 ft 445 kts 337°
2026-05-05 12:57 42.99290 13.33550 36943 ft 444 kts 335°
2026-05-05 12:57 43.02210 13.32027 37097 ft 443 kts 334°
2026-05-05 12:58 43.05040 13.30510 37285 ft 443 kts 333°
2026-05-05 12:58 43.07937 13.28942 37466 ft 442 kts 333°
2026-05-05 12:58 43.10795 13.27387 37633 ft 442 kts 333°
2026-05-05 12:58 43.13649 13.25831 37860 ft 440 kts 333°
2026-05-05 12:59 43.16501 13.24272 37998 ft 442 kts 333°
2026-05-05 12:59 43.22209 13.21147 38040 ft 443 kts 333°
2026-05-05 13:00 43.30753 13.16451 38039 ft 442 kts 333°
2026-05-05 13:01 43.42183 13.10135 38034 ft 442 kts 333°
2026-05-05 13:01 43.47906 13.06962 38032 ft 443 kts 333°
2026-05-05 13:02 43.53620 13.03787 38030 ft 443 kts 333°
2026-05-05 13:02 43.59341 13.00601 38030 ft 443 kts 333°
2026-05-05 13:03 43.65070 12.97403 38029 ft 444 kts 333°
2026-05-05 13:03 43.70786 12.94207 38029 ft 444 kts 333°
2026-05-05 13:04 43.75556 12.91535 38017 ft 444 kts 333°
2026-05-05 13:04 43.81282 12.88320 38010 ft 444 kts 333°
2026-05-05 13:05 43.87948 12.84569 38004 ft 444 kts 333°
2026-05-05 13:05 43.92716 12.81880 38000 ft 444 kts 333°
2026-05-05 13:06 43.98443 12.78644 37997 ft 445 kts 333°
2026-05-05 13:06 44.04193 12.75387 37996 ft 447 kts 333°
2026-05-05 13:07 44.09952 12.72122 37996 ft 447 kts 333°
2026-05-05 13:07 44.15709 12.68849 37998 ft 447 kts 333°
2026-05-05 13:08 44.21473 12.65565 38003 ft 447 kts 333°
2026-05-05 13:08 44.27200 12.62295 37997 ft 447 kts 333°
2026-05-05 13:09 44.32970 12.58992 38004 ft 447 kts 333°
2026-05-05 13:09 44.38729 12.55689 38004 ft 448 kts 333°
2026-05-05 13:10 44.44493 12.52377 38001 ft 447 kts 333°
2026-05-05 13:10 44.50248 12.49062 37995 ft 448 kts 333°
2026-05-05 13:11 44.56014 12.45734 37994 ft 448 kts 333°
2026-05-05 13:11 44.61755 12.42413 37994 ft 448 kts 333°
2026-05-05 13:12 44.67515 12.39074 37995 ft 448 kts 333°
2026-05-05 13:12 44.73311 12.35706 37997 ft 448 kts 333°
2026-05-05 13:13 44.79096 12.32339 37995 ft 449 kts 333°
2026-05-05 13:13 44.84824 12.28996 37987 ft 448 kts 333°
2026-05-05 13:14 44.90589 12.25625 37992 ft 449 kts 333°
2026-05-05 13:14 44.96360 12.22242 37998 ft 449 kts 333°
2026-05-05 13:15 45.02149 12.18842 38004 ft 450 kts 333°
2026-05-05 13:15 45.07927 12.15442 38008 ft 450 kts 333°
2026-05-05 13:16 45.13706 12.12032 38012 ft 450 kts 333°
2026-05-05 13:16 45.19497 12.08609 38016 ft 451 kts 333°
2026-05-05 13:17 45.25294 12.05173 38017 ft 451 kts 333°
2026-05-05 13:17 45.30728 12.01947 38019 ft 451 kts 333°
2026-05-05 13:18 45.36528 11.98496 38020 ft 452 kts 333°
2026-05-05 13:18 45.42313 11.95045 38022 ft 454 kts 333°
2026-05-05 13:19 45.48150 11.91556 38022 ft 453 kts 333°
2026-05-05 13:19 45.53964 11.88072 38023 ft 453 kts 333°
2026-05-05 13:20 45.59747 11.84599 38023 ft 453 kts 333°
2026-05-05 13:20 45.65566 11.81097 38023 ft 453 kts 333°
2026-05-05 13:21 45.71403 11.77576 38023 ft 453 kts 333°
2026-05-05 13:21 45.77223 11.74057 38024 ft 453 kts 333°
2026-05-05 13:22 45.83037 11.70534 38025 ft 453 kts 333°
2026-05-05 13:22 45.88824 11.67019 38025 ft 453 kts 333°
2026-05-05 13:23 45.94647 11.63475 38026 ft 453 kts 333°
2026-05-05 13:23 46.00455 11.59931 38029 ft 453 kts 333°
2026-05-05 13:24 46.06277 11.56370 38031 ft 455 kts 333°
2026-05-05 13:24 46.12113 11.52793 38032 ft 455 kts 333°
2026-05-05 13:25 46.17908 11.49232 38031 ft 455 kts 333°
2026-05-05 13:25 46.23742 11.45640 38028 ft 456 kts 333°
2026-05-05 13:26 46.29592 11.42030 38021 ft 456 kts 333°
2026-05-05 13:26 46.35419 11.38424 38011 ft 456 kts 333°
2026-05-05 13:27 46.41227 11.34823 38000 ft 457 kts 333°
2026-05-05 13:27 46.47082 11.31184 37994 ft 458 kts 333°
2026-05-05 13:28 46.52951 11.27572 37990 ft 459 kts 336°
2026-05-05 13:28 46.59046 11.24642 37991 ft 461 kts 338°
2026-05-05 13:29 46.65152 11.21743 37988 ft 461 kts 338°
2026-05-05 13:29 46.71266 11.18844 37982 ft 462 kts 338°
2026-05-05 13:30 46.77345 11.15961 37974 ft 462 kts 338°
2026-05-05 13:30 46.83503 11.13034 37962 ft 463 kts 338°
2026-05-05 13:31 46.89594 11.10133 37939 ft 463 kts 338°
2026-05-05 13:31 46.95735 11.07203 37927 ft 463 kts 338°
2026-05-05 13:32 47.01895 11.04256 37915 ft 464 kts 338°
2026-05-05 13:32 47.08040 11.01309 37903 ft 464 kts 338°
2026-05-05 13:33 47.14144 10.98374 37893 ft 464 kts 338°
2026-05-05 13:33 47.20295 10.95409 37885 ft 464 kts 338°
2026-05-05 13:34 47.26441 10.92439 37881 ft 465 kts 338°
2026-05-05 13:34 47.32595 10.89458 37868 ft 465 kts 338°
2026-05-05 13:35 47.38770 10.86460 37864 ft 466 kts 338°
2026-05-05 13:35 47.44931 10.83460 37864 ft 466 kts 338°
2026-05-05 13:36 47.51072 10.80463 37861 ft 466 kts 338°
2026-05-05 13:36 47.57285 10.77423 37857 ft 467 kts 338°
2026-05-05 13:37 47.63452 10.74398 37853 ft 467 kts 338°
2026-05-05 13:37 47.69580 10.71384 37850 ft 468 kts 338°
2026-05-05 13:38 47.75765 10.68334 37848 ft 467 kts 338°
2026-05-05 13:38 47.81945 10.65280 37847 ft 467 kts 338°
2026-05-05 13:39 47.87074 10.62740 37844 ft 467 kts 338°
2026-05-05 13:39 47.93250 10.59673 37842 ft 468 kts 338°
2026-05-05 13:40 47.99443 10.56591 37838 ft 469 kts 338°
2026-05-05 13:40 48.05627 10.53504 37836 ft 469 kts 338°
2026-05-05 13:41 48.11829 10.50400 37835 ft 469 kts 338°
2026-05-05 13:41 48.18022 10.47294 37835 ft 470 kts 338°
2026-05-05 13:42 48.24207 10.44183 37829 ft 470 kts 338°
2026-05-05 13:42 48.30469 10.41026 37826 ft 470 kts 338°
2026-05-05 13:43 48.36639 10.37907 37824 ft 469 kts 338°
2026-05-05 13:43 48.42824 10.34772 37823 ft 469 kts 338°
2026-05-05 13:44 48.49059 10.31603 37826 ft 470 kts 338°
2026-05-05 13:44 48.55164 10.28135 37827 ft 468 kts 333°
2026-05-05 13:45 48.61010 10.23960 37826 ft 466 kts 329°
2026-05-05 13:45 48.66810 10.19571 37830 ft 466 kts 329°
2026-05-05 13:46 48.72612 10.15162 37829 ft 466 kts 329°
2026-05-05 13:46 48.78414 10.10740 37825 ft 466 kts 329°
2026-05-05 13:47 48.84222 10.06299 37819 ft 466 kts 329°
2026-05-05 13:47 48.90011 10.01856 37816 ft 466 kts 329°
2026-05-05 13:48 48.95820 9.97381 37815 ft 469 kts 329°
2026-05-05 13:48 49.01647 9.92879 37817 ft 470 kts 329°
2026-05-05 13:49 49.07492 9.88351 37817 ft 470 kts 329°
2026-05-05 13:49 49.13294 9.83757 37812 ft 467 kts 323°
2026-05-05 13:50 49.15797 9.80645 37816 ft 460 kts 311°
2026-05-05 13:50 49.17976 9.77108 37818 ft 458 kts 308°
2026-05-05 13:50 49.22371 9.70020 37816 ft 460 kts 310°
2026-05-05 13:51 49.26865 9.63029 37817 ft 461 kts 310°
2026-05-05 13:51 49.31360 9.56011 37817 ft 460 kts 310°
2026-05-05 13:52 49.35816 9.49045 37817 ft 461 kts 310°
2026-05-05 13:52 49.40317 9.42014 37815 ft 462 kts 310°
2026-05-05 13:53 49.45134 9.35403 37811 ft 469 kts 323°
2026-05-05 13:53 49.47746 9.32464 37810 ft 463 kts 312°
2026-05-05 13:53 49.49945 9.28942 37814 ft 461 kts 309°
2026-05-05 13:54 49.54402 9.21820 37814 ft 461 kts 310°
2026-05-05 13:54 49.58905 9.14763 37815 ft 462 kts 310°
2026-05-05 13:55 49.63425 9.07691 37815 ft 463 kts 310°
2026-05-05 13:55 49.67937 9.00620 37815 ft 463 kts 310°
2026-05-05 13:56 49.72469 8.93501 37815 ft 464 kts 310°
2026-05-05 13:56 49.76995 8.86371 37815 ft 464 kts 310°
2026-05-05 13:57 49.81522 8.79219 37746 ft 467 kts 310°
2026-05-05 13:57 49.83774 8.75653 37501 ft 467 kts 310°
2026-05-05 13:57 49.86039 8.72064 37257 ft 466 kts 310°
2026-05-05 13:58 49.88309 8.68459 36560 ft 469 kts 309°
2026-05-05 13:58 49.90581 8.64847 35845 ft 471 kts 309°
2026-05-05 13:58 49.92873 8.61198 35091 ft 472 kts 309°
2026-05-05 13:58 49.95167 8.57542 34282 ft 474 kts 309°
2026-05-05 13:59 49.99734 8.50231 32172 ft 469 kts 309°
2026-05-05 13:59 50.02015 8.46567 31272 ft 472 kts 309°
2026-05-05 14:00 50.06584 8.39226 29381 ft 477 kts 310°
2026-05-05 14:00 50.08125 8.36745 28646 ft 481 kts 310°
2026-05-05 14:00 50.11252 8.31713 27260 ft 485 kts 311°
2026-05-05 14:00 50.13604 8.27921 26184 ft 486 kts 311°
2026-05-05 14:01 50.15959 8.24117 25058 ft 489 kts 311°
2026-05-05 14:01 50.18313 8.20307 24230 ft 484 kts 312°
2026-05-05 14:01 50.20629 8.16556 23508 ft 477 kts 312°
2026-05-05 14:01 50.22925 8.12831 22802 ft 470 kts 312°
2026-05-05 14:02 50.25172 8.09175 22128 ft 462 kts 312°
2026-05-05 14:02 50.27379 8.05577 21468 ft 455 kts 312°
2026-05-05 14:02 50.29561 8.02014 20831 ft 450 kts 312°
2026-05-05 14:02 50.31693 7.98528 20631 ft 437 kts 311°
2026-05-05 14:03 50.33785 7.95094 20556 ft 435 kts 311°
2026-05-05 14:03 50.35869 7.91673 20481 ft 434 kts 311°
2026-05-05 14:03 50.37952 7.88254 20405 ft 433 kts 311°
2026-05-05 14:03 50.40043 7.84817 19814 ft 438 kts 311°
2026-05-05 14:04 50.42172 7.81320 18694 ft 447 kts 312°
2026-05-05 14:04 50.44308 7.77812 18118 ft 442 kts 312°
2026-05-05 14:04 50.46433 7.74310 17465 ft 439 kts 311°
2026-05-05 14:04 50.48515 7.70867 16855 ft 435 kts 311°
2026-05-05 14:05 50.50586 7.67437 16294 ft 430 kts 312°
2026-05-05 14:05 50.52616 7.64071 15734 ft 426 kts 311°
2026-05-05 14:05 50.54656 7.60684 14877 ft 418 kts 311°
2026-05-05 14:05 50.56623 7.57408 13867 ft 414 kts 311°
2026-05-05 14:06 50.58596 7.54123 13373 ft 410 kts 312°
2026-05-05 14:06 50.60546 7.50873 12826 ft 407 kts 311°
2026-05-05 14:06 50.62484 7.47637 12300 ft 403 kts 312°
2026-05-05 14:06 50.64402 7.44432 11741 ft 400 kts 312°
2026-05-05 14:07 50.66307 7.41244 11181 ft 397 kts 312°
2026-05-05 14:07 50.68185 7.38100 10963 ft 384 kts 312°
2026-05-05 14:07 50.69972 7.35098 10886 ft 367 kts 312°
2026-05-05 14:07 50.71676 7.32225 10808 ft 352 kts 312°
2026-05-05 14:08 50.73305 7.29478 10731 ft 337 kts 311°
2026-05-05 14:08 50.74887 7.26804 10653 ft 324 kts 312°
2026-05-05 14:08 50.76396 7.24255 10560 ft 311 kts 311°
2026-05-05 14:08 50.77865 7.21770 10130 ft 312 kts 312°
2026-05-05 14:09 50.79338 7.19280 9777 ft 310 kts 312°
2026-05-05 14:09 50.80804 7.16806 9420 ft 307 kts 312°
2026-05-05 14:09 50.82246 7.14367 9133 ft 302 kts 312°